Time,TemperatureF,DewpointF,PressureIn,WindDirection,WindDirectionDegrees,WindSpeedMPH,WindSpeedGustMPH,Humidity,HourlyPrecipIn,Conditions,Clouds,dailyrainin,SoftwareType,DateUTC
2013-06-14 00:00:00,65.5,58.1,29.99,East,83,4.0,12.0,77,0.00,,CLR,0.00,VWS V14.01,2013-06-14 05:00:00,
2013-06-14 00:05:00,65.3,57.9,29.99,ENE,64,1.0,9.0,77,0.00,,CLR,0.00,VWS V14.01,2013-06-14 05:05:00,
2013-06-14 00:10:00,65.0,57.6,29.99,SSE,155,4.0,6.0,77,0.00,,CLR,0.00,VWS V14.01,2013-06-14 05:10:00,
2013-06-14 00:15:00,64.8,57.4,29.99,SE,131,4.0,8.0,77,0.00,,CLR,0.00,VWS V14.01,2013-06-14 05:15:00,
2013-06-14 00:20:00,64.5,57.1,29.99,SSE,150,2.0,6.0,77,0.00,,CLR,0.00,VWS V14.01,2013-06-14 05:20:00,
2013-06-14 00:25:00,64.2,56.8,30.00,East,96,2.0,6.0,77,0.00,,CLR,0.00,VWS V14.01,2013-06-14 05:25:00,
2013-06-14 00:30:00,64.1,56.8,30.00,ESE,108,2.0,9.0,77,0.00,,CLR,0.00,VWS V14.01,2013-06-14 05:30:00,
2013-06-14 00:35:00,63.9,56.6,30.00,SE,132,3.0,9.0,77,0.00,,CLR,0.00,VWS V14.01,2013-06-14 05:35:00,
2013-06-14 00:40:00,63.7,56.4,30.01,SE,134,2.0,6.0,77,0.00,,CLR,0.00,VWS V14.01,2013-06-14 05:40:00,
2013-06-14 00:45:00,63.6,56.3,30.01,ESE,109,0.0,8.0,77,0.00,,CLR,0.00,VWS V14.01,2013-06-14 05:45:00,
2013-06-14 00:50:00,63.4,56.1,30.01,ENE,67,2.0,7.0,77,0.00,,CLR,0.00,VWS V14.01,2013-06-14 05:50:00,
2013-06-14 00:55:00,63.3,56.0,30.01,ESE,115,2.0,7.0,77,0.00,,CLR,0.00,VWS V14.01,2013-06-14 05:55:00,
2013-06-14 01:00:00,63.1,55.8,30.01,ESE,106,5.0,7.0,77,0.00,,CLR,0.00,VWS V14.01,2013-06-14 06:00:00,
2013-06-14 01:05:00,63.0,56.0,30.01,NE,52,4.0,7.0,78,0.00,,CLR,0.00,VWS V14.01,2013-06-14 06:05:00,
2013-06-14 01:10:00,62.8,55.8,30.01,East,89,1.0,7.0,78,0.00,,CLR,0.00,VWS V14.01,2013-06-14 06:10:00,
2013-06-14 01:15:00,62.7,55.8,30.01,East,96,3.0,8.0,78,0.00,,CLR,0.00,VWS V14.01,2013-06-14 06:15:00,
2013-06-14 01:20:00,62.6,55.7,30.01,ENE,70,2.0,8.0,78,0.00,,CLR,0.00,VWS V14.01,2013-06-14 06:20:00,
2013-06-14 01:21:00,62.5,55.6,30.01,NNE,29,1.0,6.0,78,0.00,,CLR,0.00,VWS V14.01,2013-06-14 06:21:00,
2013-06-14 01:26:00,62.4,55.5,30.01,ENE,70,2.0,7.0,78,0.00,,CLR,0.00,VWS V14.01,2013-06-14 06:26:00,
2013-06-14 01:30:00,62.3,55.4,30.01,ENE,68,2.0,7.0,78,0.00,,CLR,0.00,VWS V14.01,2013-06-14 06:30:00,
2013-06-14 01:31:00,62.3,55.4,30.01,East,97,3.0,10.0,78,0.00,,CLR,0.00,VWS V14.01,2013-06-14 06:31:00,
2013-06-14 01:36:00,62.2,55.3,30.01,ENE,60,2.0,10.0,78,0.00,,CLR,0.00,VWS V14.01,2013-06-14 06:36:00,
2013-06-14 01:40:00,62.2,55.3,30.01,ENE,76,1.0,10.0,78,0.00,,CLR,0.00,VWS V14.01,2013-06-14 06:40:00,
2013-06-14 01:41:00,62.2,55.3,30.02,East,85,2.0,9.0,78,0.00,,CLR,0.00,VWS V14.01,2013-06-14 06:41:00,
2013-06-14 01:46:00,62.1,55.2,30.02,East,82,1.0,9.0,78,0.00,,CLR,0.00,VWS V14.01,2013-06-14 06:46:00,
2013-06-14 01:50:00,62.0,55.1,30.02,NNE,23,0.0,9.0,78,0.00,,CLR,0.00,VWS V14.01,2013-06-14 06:50:00,
2013-06-14 01:51:00,62.0,55.1,30.02,ENE,57,1.0,4.0,78,0.00,,CLR,0.00,VWS V14.01,2013-06-14 06:51:00,
2013-06-14 01:56:00,61.9,55.3,30.02,ENE,63,2.0,7.0,79,0.00,,CLR,0.00,VWS V14.01,2013-06-14 06:56:00,
2013-06-14 02:00:00,61.8,55.2,30.03,East,79,1.0,7.0,79,0.00,,CLR,0.00,VWS V14.01,2013-06-14 07:00:00,
2013-06-14 02:01:00,61.7,55.1,30.03,East,97,0.0,3.0,79,0.00,,CLR,0.00,VWS V14.01,2013-06-14 07:01:00,
2013-06-14 02:06:00,61.7,55.1,30.04,ESE,105,0.0,3.0,79,0.00,,CLR,0.00,VWS V14.01,2013-06-14 07:06:00,
2013-06-14 02:10:00,61.6,55.0,30.04,East,91,1.0,4.0,79,0.00,,CLR,0.00,VWS V14.01,2013-06-14 07:10:00,
2013-06-14 02:11:00,61.6,55.0,30.04,East,80,2.0,2.0,79,0.00,,CLR,0.00,VWS V14.01,2013-06-14 07:11:00,
2013-06-14 02:16:00,61.5,54.9,30.05,East,98,0.0,4.0,79,0.00,,CLR,0.00,VWS V14.01,2013-06-14 07:16:00,
2013-06-14 02:20:00,61.4,54.8,30.05,East,99,0.0,4.0,79,0.00,,CLR,0.00,VWS V14.01,2013-06-14 07:20:00,
2013-06-14 02:21:00,61.4,55.2,30.05,ESE,120,0.0,1.0,80,0.00,,CLR,0.00,VWS V14.01,2013-06-14 07:21:00,
2013-06-14 02:26:00,61.3,55.1,30.05,East,96,1.0,4.0,80,0.00,,CLR,0.00,VWS V14.01,2013-06-14 07:26:00,
2013-06-14 02:30:00,61.2,55.0,30.05,East,96,0.0,4.0,80,0.00,,CLR,0.00,VWS V14.01,2013-06-14 07:30:00,
2013-06-14 02:31:00,61.1,54.9,30.05,East,96,0.0,1.0,80,0.00,,CLR,0.00,VWS V14.01,2013-06-14 07:31:00,
2013-06-14 02:36:00,60.9,54.7,30.05,East,96,0.0,1.0,80,0.00,,CLR,0.00,VWS V14.01,2013-06-14 07:36:00,
2013-06-14 02:40:00,60.8,54.6,30.05,East,96,0.0,1.0,80,0.00,,CLR,0.00,VWS V14.01,2013-06-14 07:40:00,
2013-06-14 02:42:00,60.7,54.8,30.05,East,96,0.0,0.0,81,0.00,,CLR,0.00,VWS V14.01,2013-06-14 07:42:00,
2013-06-14 02:47:00,60.4,54.5,30.05,ESE,106,1.0,1.0,81,0.00,,CLR,0.00,VWS V14.01,2013-06-14 07:47:00,
2013-06-14 02:50:00,60.3,54.8,30.05,East,79,1.0,3.0,82,0.00,,CLR,0.00,VWS V14.01,2013-06-14 07:50:00,
2013-06-14 02:52:00,60.3,54.5,30.06,ENE,74,2.0,3.0,81,0.00,,CLR,0.00,VWS V14.01,2013-06-14 07:52:00,
2013-06-14 02:57:00,60.4,54.5,30.06,East,98,1.0,4.0,81,0.00,,CLR,0.00,VWS V14.01,2013-06-14 07:57:00,
2013-06-14 03:00:00,60.4,54.5,30.06,ESE,106,1.0,4.0,81,0.00,,CLR,0.00,VWS V14.01,2013-06-14 08:00:00,
2013-06-14 03:02:00,60.3,54.5,30.06,East,101,0.0,2.0,81,0.00,,CLR,0.00,VWS V14.01,2013-06-14 08:02:00,
2013-06-14 03:07:00,60.1,54.3,30.05,East,80,2.0,4.0,81,0.00,,CLR,0.00,VWS V14.01,2013-06-14 08:07:00,
2013-06-14 03:10:00,60.1,54.3,30.05,ESE,121,2.0,4.0,81,0.00,,CLR,0.00,VWS V14.01,2013-06-14 08:10:00,
2013-06-14 03:12:00,60.1,54.3,30.05,ENE,78,0.0,5.0,81,0.00,,CLR,0.00,VWS V14.01,2013-06-14 08:12:00,
2013-06-14 03:17:00,60.1,54.3,30.05,SE,133,2.0,6.0,81,0.00,,CLR,0.00,VWS V14.01,2013-06-14 08:17:00,
2013-06-14 03:20:00,60.1,54.3,30.05,East,99,0.0,6.0,81,0.00,,CLR,0.00,VWS V14.01,2013-06-14 08:20:00,
2013-06-14 03:22:00,60.1,54.3,30.06,East,79,0.0,2.0,81,0.00,,CLR,0.00,VWS V14.01,2013-06-14 08:22:00,
2013-06-14 03:27:00,60.0,54.2,30.06,East,93,2.0,5.0,81,0.00,,CLR,0.00,VWS V14.01,2013-06-14 08:27:00,
2013-06-14 03:30:00,60.0,54.2,30.06,SE,130,0.0,5.0,81,0.00,,CLR,0.00,VWS V14.01,2013-06-14 08:30:00,
2013-06-14 03:32:00,59.9,54.1,30.06,East,87,0.0,3.0,81,0.00,,CLR,0.00,VWS V14.01,2013-06-14 08:32:00,
2013-06-14 03:37:00,59.8,54.3,30.06,SE,143,0.0,4.0,82,0.00,,CLR,0.00,VWS V14.01,2013-06-14 08:37:00,
2013-06-14 03:40:00,59.8,54.3,30.06,SE,143,0.0,4.0,82,0.00,,CLR,0.00,VWS V14.01,2013-06-14 08:40:00,
2013-06-14 03:42:00,59.7,54.2,30.06,East,97,1.0,2.0,82,0.00,,CLR,0.00,VWS V14.01,2013-06-14 08:42:00,
2013-06-14 03:47:00,59.5,54.0,30.06,East,97,0.0,2.0,82,0.00,,CLR,0.00,VWS V14.01,2013-06-14 08:47:00,
2013-06-14 03:50:00,59.5,54.0,30.06,East,97,0.0,2.0,82,0.00,,CLR,0.00,VWS V14.01,2013-06-14 08:50:00,
2013-06-14 03:52:00,59.3,54.2,30.07,ESE,102,0.0,2.0,83,0.00,,CLR,0.00,VWS V14.01,2013-06-14 08:52:00,
2013-06-14 03:58:00,59.1,54.0,30.06,East,99,0.0,2.0,83,0.00,,CLR,0.00,VWS V14.01,2013-06-14 08:58:00,
2013-06-14 04:00:00,59.1,54.0,30.06,East,93,1.0,2.0,83,0.00,,CLR,0.00,VWS V14.01,2013-06-14 09:00:00,
2013-06-14 04:03:00,59.0,53.8,30.06,East,93,0.0,1.0,83,0.00,,CLR,0.00,VWS V14.01,2013-06-14 09:03:00,
2013-06-14 04:08:00,58.8,54.0,30.06,East,94,0.0,1.0,84,0.00,,CLR,0.00,VWS V14.01,2013-06-14 09:08:00,
2013-06-14 04:10:00,58.8,54.0,30.06,East,93,0.0,1.0,84,0.00,,CLR,0.00,VWS V14.01,2013-06-14 09:10:00,
2013-06-14 04:13:00,58.7,53.9,30.06,East,94,0.0,1.0,84,0.00,,CLR,0.00,VWS V14.01,2013-06-14 09:13:00,
2013-06-14 04:18:00,58.5,53.7,30.06,East,93,0.0,1.0,84,0.00,,CLR,0.00,VWS V14.01,2013-06-14 09:18:00,
2013-06-14 04:20:00,58.5,53.7,30.06,East,93,0.0,1.0,84,0.00,,CLR,0.00,VWS V14.01,2013-06-14 09:20:00,
2013-06-14 04:23:00,58.4,53.6,30.06,East,93,0.0,0.0,84,0.00,,CLR,0.00,VWS V14.01,2013-06-14 09:23:00,
2013-06-14 04:28:00,58.2,53.7,30.06,East,101,0.0,2.0,85,0.00,,CLR,0.00,VWS V14.01,2013-06-14 09:28:00,
2013-06-14 04:30:00,58.2,53.7,30.06,East,100,0.0,2.0,85,0.00,,CLR,0.00,VWS V14.01,2013-06-14 09:30:00,
2013-06-14 04:33:00,58.2,53.7,30.06,East,101,0.0,1.0,85,0.00,,CLR,0.00,VWS V14.01,2013-06-14 09:33:00,
2013-06-14 04:38:00,58.1,53.6,30.07,SE,124,0.0,1.0,85,0.00,,CLR,0.00,VWS V14.01,2013-06-14 09:38:00,
2013-06-14 04:40:00,58.1,53.6,30.07,SE,124,0.0,1.0,85,0.00,,CLR,0.00,VWS V14.01,2013-06-14 09:40:00,
2013-06-14 04:43:00,58.1,53.6,30.07,ESE,117,0.0,1.0,85,0.00,,CLR,0.00,VWS V14.01,2013-06-14 09:43:00,
2013-06-14 04:48:00,58.1,53.6,30.07,SSW,205,0.0,0.0,85,0.00,,CLR,0.00,VWS V14.01,2013-06-14 09:48:00,
2013-06-14 04:50:00,58.1,53.6,30.07,SSW,205,0.0,1.0,85,0.00,,CLR,0.00,VWS V14.01,2013-06-14 09:50:00,
2013-06-14 04:53:00,58.0,53.8,30.07,SSW,205,0.0,0.0,86,0.00,,CLR,0.00,VWS V14.01,2013-06-14 09:53:00,
2013-06-14 04:58:00,57.6,53.5,30.08,SSW,205,0.0,0.0,86,0.00,,CLR,0.00,VWS V14.01,2013-06-14 09:58:00,
2013-06-14 05:00:00,57.6,53.5,30.08,SSW,205,0.0,0.0,86,0.00,,CLR,0.00,VWS V14.01,2013-06-14 10:00:00,
2013-06-14 05:03:00,57.3,53.5,30.08,SSW,205,0.0,0.0,87,0.00,,CLR,0.00,VWS V14.01,2013-06-14 10:03:00,
2013-06-14 05:09:00,57.0,53.2,30.08,SSE,151,0.0,0.0,87,0.00,,CLR,0.00,VWS V14.01,2013-06-14 10:09:00,
2013-06-14 05:10:00,57.0,53.2,30.08,SSE,151,0.0,0.0,87,0.00,,CLR,0.00,VWS V14.01,2013-06-14 10:10:00,
2013-06-14 05:14:00,56.8,53.0,30.09,SSE,150,0.0,0.0,87,0.00,,CLR,0.00,VWS V14.01,2013-06-14 10:14:00,
2013-06-14 05:19:00,56.8,53.3,30.08,SSE,150,0.0,0.0,88,0.00,,CLR,0.00,VWS V14.01,2013-06-14 10:19:00,
2013-06-14 05:20:00,56.8,53.3,30.08,SSE,151,0.0,0.0,88,0.00,,CLR,0.00,VWS V14.01,2013-06-14 10:20:00,
2013-06-14 05:24:00,56.7,53.5,30.08,SSE,150,0.0,0.0,89,0.00,,CLR,0.00,VWS V14.01,2013-06-14 10:24:00,
2013-06-14 05:29:00,56.6,53.4,30.08,SSE,151,0.0,0.0,89,0.00,,CLR,0.00,VWS V14.01,2013-06-14 10:29:00,
2013-06-14 05:30:00,56.6,53.4,30.08,SSE,151,0.0,0.0,89,0.00,,CLR,0.00,VWS V14.01,2013-06-14 10:30:00,
2013-06-14 05:34:00,56.5,53.3,30.08,SSE,151,0.0,0.0,89,0.00,,CLR,0.00,VWS V14.01,2013-06-14 10:34:00,
2013-06-14 05:39:00,56.5,53.3,30.08,SSE,150,0.0,0.0,89,0.00,,CLR,0.00,VWS V14.01,2013-06-14 10:39:00,
2013-06-14 05:40:00,56.5,53.3,30.08,SSE,151,0.0,0.0,89,0.00,,CLR,0.00,VWS V14.01,2013-06-14 10:40:00,
2013-06-14 05:44:00,56.4,53.2,30.08,SE,142,0.0,0.0,89,0.00,,CLR,0.00,VWS V14.01,2013-06-14 10:44:00,
2013-06-14 05:49:00,56.5,53.6,30.08,SE,142,0.0,0.0,90,0.00,,CLR,0.00,VWS V14.01,2013-06-14 10:49:00,
2013-06-14 05:50:00,56.4,53.5,30.08,SE,143,0.0,0.0,90,0.00,,CLR,0.00,VWS V14.01,2013-06-14 10:50:00,
2013-06-14 05:54:00,57.3,54.4,30.08,SE,141,0.0,0.0,90,0.00,,CLR,0.00,VWS V14.01,2013-06-14 10:54:00,
2013-06-14 05:59:00,58.3,55.1,30.08,SE,141,0.0,0.0,89,0.00,,CLR,0.00,VWS V14.01,2013-06-14 10:59:00,
2013-06-14 06:00:00,58.0,54.8,30.08,SE,141,0.0,0.0,89,0.00,,CLR,0.00,VWS V14.01,2013-06-14 11:00:00,
2013-06-14 06:04:00,59.2,55.0,30.08,East,81,0.0,1.0,86,0.00,,CLR,0.00,VWS V14.01,2013-06-14 11:04:00,
2013-06-14 06:09:00,59.7,54.9,30.08,East,84,0.0,0.0,84,0.00,,CLR,0.00,VWS V14.01,2013-06-14 11:09:00,
2013-06-14 06:10:00,59.6,55.1,30.08,East,85,0.0,1.0,85,0.00,,CLR,0.00,VWS V14.01,2013-06-14 11:10:00,
2013-06-14 06:14:00,60.3,55.1,30.08,East,85,0.0,1.0,83,0.00,,CLR,0.00,VWS V14.01,2013-06-14 11:14:00,
2013-06-14 06:20:00,61.1,55.6,30.09,East,84,0.0,0.0,82,0.00,,CLR,0.00,VWS V14.01,2013-06-14 11:20:00,
2013-06-14 06:25:00,61.7,55.5,30.09,East,85,0.0,1.0,80,0.00,,CLR,0.00,VWS V14.01,2013-06-14 11:25:00,
2013-06-14 06:30:00,61.9,55.7,30.09,East,85,0.0,0.0,80,0.00,,CLR,0.00,VWS V14.01,2013-06-14 11:30:00,
2013-06-14 06:35:00,61.2,55.0,30.10,East,85,0.0,0.0,80,0.00,,CLR,0.00,VWS V14.01,2013-06-14 11:35:00,
2013-06-14 06:40:00,60.8,54.9,30.10,East,84,0.0,0.0,81,0.00,,CLR,0.00,VWS V14.01,2013-06-14 11:40:00,
2013-06-14 06:45:00,61.0,55.5,30.10,East,79,0.0,0.0,82,0.00,,CLR,0.00,VWS V14.01,2013-06-14 11:45:00,
2013-06-14 06:50:00,61.5,55.3,30.10,NE,50,0.0,1.0,80,0.00,,CLR,0.00,VWS V14.01,2013-06-14 11:50:00,
2013-06-14 06:55:00,61.6,54.7,30.10,NE,49,0.0,1.0,78,0.00,,CLR,0.00,VWS V14.01,2013-06-14 11:55:00,
2013-06-14 07:00:00,61.7,55.1,30.10,NE,51,0.0,0.0,79,0.00,,CLR,0.00,VWS V14.01,2013-06-14 12:00:00,
2013-06-14 07:05:00,61.6,55.0,30.10,East,87,0.0,2.0,79,0.00,,CLR,0.00,VWS V14.01,2013-06-14 12:05:00,
2013-06-14 07:10:00,62.0,55.4,30.10,East,98,0.0,0.0,79,0.00,,CLR,0.00,VWS V14.01,2013-06-14 12:10:00,
2013-06-14 07:15:00,62.9,56.3,30.11,NW,305,0.0,0.0,79,0.00,,CLR,0.00,VWS V14.01,2013-06-14 12:15:00,
2013-06-14 07:20:00,62.8,55.5,30.11,WNW,294,0.0,0.0,77,0.00,,CLR,0.00,VWS V14.01,2013-06-14 12:20:00,
2013-06-14 07:25:00,62.5,55.2,30.11,WNW,294,0.0,0.0,77,0.00,,CLR,0.00,VWS V14.01,2013-06-14 12:25:00,
2013-06-14 07:30:00,62.8,55.8,30.11,NNE,32,0.0,0.0,78,0.00,,CLR,0.00,VWS V14.01,2013-06-14 12:30:00,
2013-06-14 07:36:00,63.3,56.0,30.11,NE,37,0.0,0.0,77,0.00,,CLR,0.00,VWS V14.01,2013-06-14 12:36:00,
2013-06-14 07:40:00,63.6,55.9,30.11,NE,37,0.0,0.0,76,0.00,,CLR,0.00,VWS V14.01,2013-06-14 12:40:00,
2013-06-14 07:41:00,63.6,55.9,30.11,NE,34,0.0,0.0,76,0.00,,CLR,0.00,VWS V14.01,2013-06-14 12:41:00,
2013-06-14 07:46:00,63.2,55.5,30.11,ENE,68,0.0,0.0,76,0.00,,CLR,0.00,VWS V14.01,2013-06-14 12:46:00,
2013-06-14 07:50:00,63.5,56.2,30.11,ENE,64,0.0,0.0,77,0.00,,CLR,0.00,VWS V14.01,2013-06-14 12:50:00,
2013-06-14 07:51:00,63.8,56.1,30.11,East,91,2.0,5.0,76,0.00,,CLR,0.00,VWS V14.01,2013-06-14 12:51:00,
2013-06-14 07:56:00,64.0,55.9,30.11,NNE,27,0.0,5.0,75,0.00,,CLR,0.00,VWS V14.01,2013-06-14 12:56:00,
2013-06-14 08:00:00,64.1,56.0,30.12,NNE,27,0.0,5.0,75,0.00,,CLR,0.00,VWS V14.01,2013-06-14 13:00:00,
2013-06-14 08:01:00,64.4,56.3,30.12,NNE,27,0.0,1.0,75,0.00,,CLR,0.00,VWS V14.01,2013-06-14 13:01:00,
2013-06-14 08:06:00,64.2,55.8,30.12,NNE,19,0.0,1.0,74,0.00,,CLR,0.00,VWS V14.01,2013-06-14 13:06:00,
2013-06-14 08:10:00,64.2,56.1,30.12,NNE,29,0.0,1.0,75,0.00,,CLR,0.00,VWS V14.01,2013-06-14 13:10:00,
2013-06-14 08:11:00,64.3,56.2,30.12,East,79,0.0,0.0,75,0.00,,CLR,0.00,VWS V14.01,2013-06-14 13:11:00,
2013-06-14 08:16:00,64.7,56.6,30.13,ENE,70,1.0,2.0,75,0.00,,CLR,0.00,VWS V14.01,2013-06-14 13:16:00,
2013-06-14 08:20:00,64.7,56.2,30.13,ENE,60,3.0,3.0,74,0.00,,CLR,0.00,VWS V14.01,2013-06-14 13:20:00,
2013-06-14 08:21:00,64.8,56.3,30.13,East,79,0.0,3.0,74,0.00,,CLR,0.00,VWS V14.01,2013-06-14 13:21:00,
2013-06-14 08:26:00,65.0,56.5,30.13,NE,41,0.0,5.0,74,0.00,,CLR,0.00,VWS V14.01,2013-06-14 13:26:00,
2013-06-14 08:30:00,65.0,56.5,30.13,ENE,72,0.0,5.0,74,0.00,,CLR,0.00,VWS V14.01,2013-06-14 13:30:00,
2013-06-14 08:31:00,64.6,56.5,30.13,East,81,2.0,7.0,75,0.00,,CLR,0.00,VWS V14.01,2013-06-14 13:31:00,
2013-06-14 08:36:00,64.7,57.0,30.13,NE,49,0.0,7.0,76,0.00,,CLR,0.00,VWS V14.01,2013-06-14 13:36:00,
2013-06-14 08:40:00,64.7,57.0,30.13,NE,47,0.0,7.0,76,0.00,,CLR,0.00,VWS V14.01,2013-06-14 13:40:00,
2013-06-14 08:41:00,64.8,56.7,30.13,North,6,2.0,2.0,75,0.00,,CLR,0.00,VWS V14.01,2013-06-14 13:41:00,
2013-06-14 08:46:00,64.9,56.8,30.13,ESE,103,2.0,6.0,75,0.00,,CLR,0.00,VWS V14.01,2013-06-14 13:46:00,
2013-06-14 08:50:00,64.9,57.2,30.13,ENE,60,0.0,6.0,76,0.00,,CLR,0.00,VWS V14.01,2013-06-14 13:50:00,
2013-06-14 08:52:00,65.4,58.0,30.13,ENE,65,0.0,1.0,77,0.00,,CLR,0.00,VWS V14.01,2013-06-14 13:52:00,
2013-06-14 08:57:00,66.0,57.9,30.13,ESE,103,0.0,2.0,75,0.00,,CLR,0.00,VWS V14.01,2013-06-14 13:57:00,
2013-06-14 09:00:00,66.1,57.6,30.13,ESE,103,0.0,2.0,74,0.00,,CLR,0.00,VWS V14.01,2013-06-14 14:00:00,
2013-06-14 09:02:00,66.6,58.1,30.13,East,80,3.0,3.0,74,0.00,,CLR,0.00,VWS V14.01,2013-06-14 14:02:00,
2013-06-14 09:07:00,66.7,57.8,30.13,ENE,61,1.0,5.0,73,0.00,,CLR,0.00,VWS V14.01,2013-06-14 14:07:00,
2013-06-14 09:10:00,66.6,57.7,30.13,East,85,1.0,5.0,73,0.00,,CLR,0.00,VWS V14.01,2013-06-14 14:10:00,
2013-06-14 09:12:00,66.7,57.8,30.13,East,83,0.0,4.0,73,0.00,,CLR,0.00,VWS V14.01,2013-06-14 14:12:00,
2013-06-14 09:17:00,67.5,58.2,30.13,East,86,3.0,4.0,72,0.00,,CLR,0.00,VWS V14.01,2013-06-14 14:17:00,
2013-06-14 09:20:00,67.5,58.2,30.13,East,80,1.0,4.0,72,0.00,,CLR,0.00,VWS V14.01,2013-06-14 14:20:00,
2013-06-14 09:22:00,67.3,58.4,30.13,NE,49,2.0,3.0,73,0.00,,CLR,0.00,VWS V14.01,2013-06-14 14:22:00,
2013-06-14 09:27:00,67.5,57.4,30.13,SE,128,3.0,4.0,70,0.00,,CLR,0.00,VWS V14.01,2013-06-14 14:27:00,
2013-06-14 09:30:00,67.4,58.1,30.13,NNE,20,1.0,8.0,72,0.00,,CLR,0.00,VWS V14.01,2013-06-14 14:30:00,
2013-06-14 09:32:00,67.3,58.4,30.12,East,85,0.0,4.0,73,0.00,,CLR,0.00,VWS V14.01,2013-06-14 14:32:00,
2013-06-14 09:37:00,67.0,58.1,30.11,ENE,59,0.0,6.0,73,0.00,,CLR,0.00,VWS V14.01,2013-06-14 14:37:00,
2013-06-14 09:40:00,67.1,57.8,30.11,NE,56,0.0,6.0,72,0.00,,CLR,0.00,VWS V14.01,2013-06-14 14:40:00,
2013-06-14 09:42:00,67.2,58.3,30.11,NE,37,3.0,6.0,73,0.00,,CLR,0.00,VWS V14.01,2013-06-14 14:42:00,
2013-06-14 09:47:00,67.7,58.4,30.11,ENE,77,1.0,6.0,72,0.00,,CLR,0.00,VWS V14.01,2013-06-14 14:47:00,
2013-06-14 09:50:00,67.8,59.2,30.11,East,79,0.0,6.0,74,0.00,,CLR,0.00,VWS V14.01,2013-06-14 14:50:00,
2013-06-14 09:52:00,68.3,58.9,30.11,ENE,60,2.0,2.0,72,0.00,,CLR,0.00,VWS V14.01,2013-06-14 14:52:00,
2013-06-14 09:57:00,69.0,58.8,30.10,NNE,27,0.0,5.0,70,0.00,,CLR,0.00,VWS V14.01,2013-06-14 14:57:00,
2013-06-14 10:00:00,69.1,58.9,30.10,SSE,160,0.0,5.0,70,0.00,,CLR,0.00,VWS V14.01,2013-06-14 15:00:00,
2013-06-14 10:02:00,69.6,59.4,30.10,NE,36,1.0,4.0,70,0.00,,CLR,0.00,VWS V14.01,2013-06-14 15:02:00,
2013-06-14 10:07:00,69.6,58.6,30.11,SSE,153,1.0,5.0,68,0.00,,CLR,0.00,VWS V14.01,2013-06-14 15:07:00,
2013-06-14 10:10:00,69.6,58.2,30.11,SSE,153,1.0,5.0,67,0.00,,CLR,0.00,VWS V14.01,2013-06-14 15:10:00,
2013-06-14 10:13:00,70.2,58.7,30.10,East,90,4.0,4.0,67,0.00,,CLR,0.00,VWS V14.01,2013-06-14 15:13:00,
2013-06-14 10:18:00,69.8,57.9,30.10,ESE,118,3.0,6.0,66,0.00,,CLR,0.00,VWS V14.01,2013-06-14 15:18:00,
2013-06-14 10:20:00,69.8,57.9,30.10,SSE,149,3.0,6.0,66,0.00,,CLR,0.00,VWS V14.01,2013-06-14 15:20:00,
2013-06-14 10:23:00,69.9,58.5,30.10,ESE,106,2.0,5.0,67,0.00,,CLR,0.00,VWS V14.01,2013-06-14 15:23:00,
2013-06-14 10:28:00,70.1,57.8,30.10,ESE,106,2.0,5.0,65,0.00,,CLR,0.00,VWS V14.01,2013-06-14 15:28:00,
2013-06-14 10:30:00,70.1,57.8,30.10,East,93,4.0,6.0,65,0.00,,CLR,0.00,VWS V14.01,2013-06-14 15:30:00,
2013-06-14 10:33:00,70.5,59.4,30.09,East,101,2.0,6.0,68,0.00,,CLR,0.00,VWS V14.01,2013-06-14 15:33:00,
2013-06-14 10:38:00,70.9,58.6,30.09,ENE,70,1.0,6.0,65,0.00,,CLR,0.00,VWS V14.01,2013-06-14 15:38:00,
2013-06-14 10:40:00,70.9,58.6,30.09,ENE,70,0.0,6.0,65,0.00,,CLR,0.00,VWS V14.01,2013-06-14 15:40:00,
2013-06-14 10:43:00,71.0,58.2,30.08,ENE,70,0.0,5.0,64,0.00,,CLR,0.00,VWS V14.01,2013-06-14 15:43:00,
2013-06-14 10:48:00,71.3,58.1,30.08,SSE,149,1.0,7.0,63,0.00,,CLR,0.00,VWS V14.01,2013-06-14 15:48:00,
2013-06-14 10:50:00,71.3,58.1,30.08,SSE,149,1.0,7.0,63,0.00,,CLR,0.00,VWS V14.01,2013-06-14 15:50:00,
2013-06-14 10:53:00,71.5,57.4,30.08,East,79,1.0,4.0,61,0.00,,CLR,0.00,VWS V14.01,2013-06-14 15:53:00,
2013-06-14 10:58:00,72.1,58.4,30.08,ENE,74,0.0,4.0,62,0.00,,CLR,0.00,VWS V14.01,2013-06-14 15:58:00,
2013-06-14 11:00:00,72.1,58.4,30.08,ENE,74,0.0,4.0,62,0.00,,CLR,0.00,VWS V14.01,2013-06-14 16:00:00,
2013-06-14 11:03:00,72.1,58.4,30.08,NE,43,0.0,6.0,62,0.00,,CLR,0.00,VWS V14.01,2013-06-14 16:03:00,
2013-06-14 11:08:00,72.3,57.2,30.08,SE,135,1.0,1.0,59,0.00,,CLR,0.00,VWS V14.01,2013-06-14 16:08:00,
2013-06-14 11:10:00,72.4,57.3,30.08,SE,134,1.0,6.0,59,0.00,,CLR,0.00,VWS V14.01,2013-06-14 16:10:00,
2013-06-14 11:13:00,72.7,58.0,30.09,NNE,25,0.0,4.0,60,0.00,,CLR,0.00,VWS V14.01,2013-06-14 16:13:00,
2013-06-14 11:18:00,73.5,58.3,30.09,East,87,2.0,2.0,59,0.00,,CLR,0.00,VWS V14.01,2013-06-14 16:18:00,
2013-06-14 11:20:00,73.4,58.2,30.09,NNE,32,0.0,4.0,59,0.00,,CLR,0.00,VWS V14.01,2013-06-14 16:20:00,
2013-06-14 11:23:00,73.5,57.3,30.08,East,90,0.0,4.0,57,0.00,,CLR,0.00,VWS V14.01,2013-06-14 16:23:00,
2013-06-14 11:29:00,73.8,57.6,30.09,East,99,1.0,1.0,57,0.00,,CLR,0.00,VWS V14.01,2013-06-14 16:29:00,
2013-06-14 11:30:00,73.8,57.6,30.09,East,100,0.0,4.0,57,0.00,,CLR,0.00,VWS V14.01,2013-06-14 16:30:00,
2013-06-14 11:34:00,74.7,59.0,30.09,West,267,1.0,4.0,58,0.00,,CLR,0.00,VWS V14.01,2013-06-14 16:34:00,
2013-06-14 11:39:00,75.3,59.5,30.09,WNW,290,0.0,0.0,58,0.00,,CLR,0.00,VWS V14.01,2013-06-14 16:39:00,
2013-06-14 11:40:00,75.2,58.9,30.09,WNW,289,0.0,4.0,57,0.00,,CLR,0.00,VWS V14.01,2013-06-14 16:40:00,
2013-06-14 11:44:00,75.5,58.2,30.09,NW,324,0.0,0.0,55,0.00,,CLR,0.00,VWS V14.01,2013-06-14 16:44:00,
2013-06-14 11:49:00,75.9,57.0,30.10,South,172,0.0,3.0,52,0.00,,CLR,0.00,VWS V14.01,2013-06-14 16:49:00,
2013-06-14 11:50:00,75.9,59.1,30.10,South,186,3.0,4.0,56,0.00,,CLR,0.00,VWS V14.01,2013-06-14 16:50:00,
2013-06-14 11:54:00,76.5,58.6,30.10,East,88,4.0,5.0,54,0.00,,CLR,0.00,VWS V14.01,2013-06-14 16:54:00,
2013-06-14 11:59:00,76.0,57.1,30.10,ENE,72,0.0,1.0,52,0.00,,CLR,0.00,VWS V14.01,2013-06-14 16:59:00,
2013-06-14 12:00:00,76.1,58.3,30.10,ENE,72,1.0,5.0,54,0.00,,CLR,0.00,VWS V14.01,2013-06-14 17:00:00,
2013-06-14 12:04:00,76.0,59.2,30.10,NE,40,0.0,4.0,56,0.00,,CLR,0.00,VWS V14.01,2013-06-14 17:04:00,
2013-06-14 12:09:00,76.1,57.8,30.10,NE,37,0.0,0.0,53,0.00,,CLR,0.00,VWS V14.01,2013-06-14 17:09:00,
2013-06-14 12:10:00,76.2,58.4,30.10,NE,36,0.0,4.0,54,0.00,,CLR,0.00,VWS V14.01,2013-06-14 17:10:00,
2013-06-14 12:14:00,76.0,58.2,30.10,East,101,0.0,3.0,54,0.00,,CLR,0.00,VWS V14.01,2013-06-14 17:14:00,
2013-06-14 12:19:00,76.2,57.3,30.10,NNE,23,0.0,1.0,52,0.00,,CLR,0.00,VWS V14.01,2013-06-14 17:19:00,
2013-06-14 12:20:00,76.2,58.4,30.10,NNE,21,1.0,3.0,54,0.00,,CLR,0.00,VWS V14.01,2013-06-14 17:20:00,
2013-06-14 12:24:00,76.1,57.8,30.10,ENE,77,0.0,2.0,53,0.00,,CLR,0.00,VWS V14.01,2013-06-14 17:24:00,
2013-06-14 12:29:00,76.4,59.6,30.09,NNE,14,0.0,0.0,56,0.00,,CLR,0.00,VWS V14.01,2013-06-14 17:29:00,
2013-06-14 12:30:00,76.3,58.5,30.10,NNE,15,0.0,2.0,54,0.00,,CLR,0.00,VWS V14.01,2013-06-14 17:30:00,
2013-06-14 12:34:00,76.4,57.5,30.10,East,94,4.0,6.0,52,0.00,,CLR,0.00,VWS V14.01,2013-06-14 17:34:00,
2013-06-14 12:40:00,76.0,58.7,30.10,NNW,347,1.0,2.0,55,0.00,,CLR,0.00,VWS V14.01,2013-06-14 17:40:00,
2013-06-14 12:45:00,76.4,59.1,30.10,WSW,253,0.0,2.0,55,0.00,,CLR,0.00,VWS V14.01,2013-06-14 17:45:00,
2013-06-14 12:50:00,77.0,59.1,30.10,SE,134,1.0,2.0,54,0.00,,CLR,0.00,VWS V14.01,2013-06-14 17:50:00,
2013-06-14 12:55:00,77.3,61.4,30.11,NNE,13,0.0,5.0,58,0.00,,CLR,0.00,VWS V14.01,2013-06-14 17:55:00,
2013-06-14 13:00:00,77.4,59.5,30.11,ENE,75,0.0,0.0,54,0.00,,CLR,0.00,VWS V14.01,2013-06-14 18:00:00,
2013-06-14 13:05:00,77.2,59.8,30.11,ENE,72,0.0,1.0,55,0.00,,CLR,0.00,VWS V14.01,2013-06-14 18:05:00,
2013-06-14 13:10:00,77.0,60.1,30.11,NNE,20,1.0,2.0,56,0.00,,CLR,0.00,VWS V14.01,2013-06-14 18:10:00,
2013-06-14 13:15:00,76.4,57.5,30.11,WNW,301,0.0,2.0,52,0.00,,CLR,0.00,VWS V14.01,2013-06-14 18:15:00,
2013-06-14 13:20:00,76.5,60.6,30.11,NNE,25,0.0,1.0,58,0.00,,CLR,0.00,VWS V14.01,2013-06-14 18:20:00,
2013-06-14 13:25:00,76.5,59.7,30.11,NW,309,1.0,2.0,56,0.00,,CLR,0.00,VWS V14.01,2013-06-14 18:25:00,
2013-06-14 13:30:00,76.5,59.2,30.10,West,269,1.0,2.0,55,0.00,,CLR,0.00,VWS V14.01,2013-06-14 18:30:00,
2013-06-14 13:35:00,76.4,58.5,30.10,WNW,300,0.0,2.0,54,0.00,,CLR,0.00,VWS V14.01,2013-06-14 18:35:00,
2013-06-14 13:40:00,76.6,60.7,30.10,WNW,298,1.0,3.0,58,0.00,,CLR,0.00,VWS V14.01,2013-06-14 18:40:00,
2013-06-14 13:45:00,76.3,59.0,30.10,West,278,0.0,5.0,55,0.00,,CLR,0.00,VWS V14.01,2013-06-14 18:45:00,
2013-06-14 13:50:00,76.6,59.8,30.10,East,98,1.0,3.0,56,0.00,,CLR,0.00,VWS V14.01,2013-06-14 18:50:00,
2013-06-14 13:56:00,76.9,59.0,30.10,NNE,32,0.0,3.0,54,0.00,,CLR,0.00,VWS V14.01,2013-06-14 18:56:00,
2013-06-14 14:00:00,77.0,58.6,30.10,NNE,32,1.0,3.0,53,0.00,,CLR,0.00,VWS V14.01,2013-06-14 19:00:00,
2013-06-14 14:01:00,77.0,58.6,30.10,NNE,25,1.0,2.0,53,0.00,,CLR,0.00,VWS V14.01,2013-06-14 19:01:00,
2013-06-14 14:06:00,77.1,58.7,30.10,NNE,25,0.0,2.0,53,0.00,,CLR,0.00,VWS V14.01,2013-06-14 19:06:00,
2013-06-14 14:10:00,77.1,57.6,30.10,North,8,0.0,2.0,51,0.00,,CLR,0.00,VWS V14.01,2013-06-14 19:10:00,
2013-06-14 14:11:00,77.2,57.1,30.10,NE,43,0.0,1.0,50,0.00,,CLR,0.00,VWS V14.01,2013-06-14 19:11:00,
2013-06-14 14:16:00,77.1,56.5,30.10,WNW,291,0.0,1.0,49,0.00,,CLR,0.00,VWS V14.01,2013-06-14 19:16:00,
2013-06-14 14:20:00,76.9,56.3,30.09,WNW,295,0.0,1.0,49,0.00,,CLR,0.00,VWS V14.01,2013-06-14 19:20:00,
2013-06-14 14:21:00,76.7,56.1,30.09,WNW,293,0.0,0.0,49,0.00,,CLR,0.00,VWS V14.01,2013-06-14 19:21:00,
2013-06-14 14:26:00,76.7,55.5,30.09,East,90,1.0,4.0,48,0.00,,CLR,0.00,VWS V14.01,2013-06-14 19:26:00,
2013-06-14 14:30:00,76.8,57.9,30.09,NNE,19,0.0,4.0,52,0.00,,CLR,0.00,VWS V14.01,2013-06-14 19:30:00,
2013-06-14 14:31:00,76.9,56.9,30.09,NNE,19,0.0,0.0,50,0.00,,CLR,0.00,VWS V14.01,2013-06-14 19:31:00,
2013-06-14 14:36:00,77.0,55.2,30.09,ENE,66,0.0,2.0,47,0.00,,CLR,0.00,VWS V14.01,2013-06-14 19:36:00,
2013-06-14 14:40:00,76.9,54.6,30.09,East,84,0.0,2.0,46,0.00,,CLR,0.00,VWS V14.01,2013-06-14 19:40:00,
2013-06-14 14:41:00,77.2,56.0,30.08,NNE,23,0.0,2.0,48,0.00,,CLR,0.00,VWS V14.01,2013-06-14 19:41:00,
2013-06-14 14:46:00,77.2,57.1,30.08,East,93,0.0,2.0,50,0.00,,CLR,0.00,VWS V14.01,2013-06-14 19:46:00,
2013-06-14 14:50:00,77.3,57.8,30.08,East,94,0.0,2.0,51,0.00,,CLR,0.00,VWS V14.01,2013-06-14 19:50:00,
2013-06-14 14:51:00,77.4,58.4,30.08,ESE,103,0.0,0.0,52,0.00,,CLR,0.00,VWS V14.01,2013-06-14 19:51:00,
2013-06-14 14:56:00,77.7,57.6,30.09,NW,316,0.0,0.0,50,0.00,,CLR,0.00,VWS V14.01,2013-06-14 19:56:00,
2013-06-14 15:00:00,77.7,57.6,30.09,NW,316,0.0,0.0,50,0.00,,CLR,0.00,VWS V14.01,2013-06-14 20:00:00,
2013-06-14 15:02:00,77.4,56.8,30.09,WSW,248,0.0,0.0,49,0.00,,CLR,0.00,VWS V14.01,2013-06-14 20:02:00,
2013-06-14 15:07:00,77.6,59.1,30.08,NW,322,0.0,2.0,53,0.00,,CLR,0.00,VWS V14.01,2013-06-14 20:07:00,
2013-06-14 15:10:00,77.5,57.4,30.08,West,267,1.0,3.0,50,0.00,,CLR,0.00,VWS V14.01,2013-06-14 20:10:00,
2013-06-14 15:12:00,77.4,57.9,30.08,West,260,0.0,2.0,51,0.00,,CLR,0.00,VWS V14.01,2013-06-14 20:12:00,
2013-06-14 15:17:00,77.5,56.9,30.08,West,259,0.0,2.0,49,0.00,,CLR,0.00,VWS V14.01,2013-06-14 20:17:00,
2013-06-14 15:20:00,77.6,58.6,30.08,ENE,70,0.0,2.0,52,0.00,,CLR,0.00,VWS V14.01,2013-06-14 20:20:00,
2013-06-14 15:22:00,77.7,57.0,30.08,West,260,3.0,3.0,49,0.00,,CLR,0.00,VWS V14.01,2013-06-14 20:22:00,
2013-06-14 15:27:00,77.3,56.1,30.07,WSW,258,0.0,4.0,48,0.00,,CLR,0.00,VWS V14.01,2013-06-14 20:27:00,
2013-06-14 15:30:00,77.3,56.1,30.07,WSW,257,0.0,4.0,48,0.00,,CLR,0.00,VWS V14.01,2013-06-14 20:30:00,
2013-06-14 15:32:00,77.4,56.2,30.07,WSW,257,0.0,0.0,48,0.00,,CLR,0.00,VWS V14.01,2013-06-14 20:32:00,
2013-06-14 15:37:00,77.5,55.7,30.06,WSW,249,0.0,0.0,47,0.00,,CLR,0.00,VWS V14.01,2013-06-14 20:37:00,
2013-06-14 15:40:00,77.6,55.2,30.06,WSW,250,0.0,0.0,46,0.00,,CLR,0.00,VWS V14.01,2013-06-14 20:40:00,
2013-06-14 15:42:00,78.0,55.0,30.06,ESE,113,0.0,0.0,45,0.00,,CLR,0.00,VWS V14.01,2013-06-14 20:42:00,
2013-06-14 15:47:00,77.9,54.9,30.06,ESE,111,1.0,2.0,45,0.00,,CLR,0.00,VWS V14.01,2013-06-14 20:47:00,
2013-06-14 15:50:00,77.7,55.3,30.06,ESE,107,1.0,2.0,46,0.00,,CLR,0.00,VWS V14.01,2013-06-14 20:50:00,
2013-06-14 15:52:00,77.2,54.8,30.06,ESE,104,1.0,2.0,46,0.00,,CLR,0.00,VWS V14.01,2013-06-14 20:52:00,
2013-06-14 15:57:00,77.1,56.5,30.05,South,173,0.0,2.0,49,0.00,,CLR,0.00,VWS V14.01,2013-06-14 20:57:00,
2013-06-14 16:00:00,77.2,56.6,30.05,South,172,0.0,2.0,49,0.00,,CLR,0.00,VWS V14.01,2013-06-14 21:00:00,
2013-06-14 16:02:00,77.2,57.7,30.05,ESE,116,1.0,2.0,51,0.00,,CLR,0.00,VWS V14.01,2013-06-14 21:02:00,
2013-06-14 16:07:00,76.8,56.2,30.05,ESE,105,1.0,2.0,49,0.00,,CLR,0.00,VWS V14.01,2013-06-14 21:07:00,
2013-06-14 16:10:00,76.8,56.8,30.05,ESE,105,1.0,2.0,50,0.00,,CLR,0.00,VWS V14.01,2013-06-14 21:10:00,
2013-06-14 16:12:00,76.6,56.6,30.04,ESE,111,0.0,2.0,50,0.00,,CLR,0.00,VWS V14.01,2013-06-14 21:12:00,
2013-06-14 16:18:00,77.1,58.7,30.04,SSW,198,0.0,2.0,53,0.00,,CLR,0.00,VWS V14.01,2013-06-14 21:18:00,
2013-06-14 16:20:00,77.1,57.6,30.04,SSW,198,0.0,2.0,51,0.00,,CLR,0.00,VWS V14.01,2013-06-14 21:20:00,
2013-06-14 16:23:00,77.3,58.3,30.03,SSW,207,0.0,0.0,52,0.00,,CLR,0.00,VWS V14.01,2013-06-14 21:23:00,
2013-06-14 16:28:00,77.6,58.1,30.03,SSW,203,0.0,0.0,51,0.00,,CLR,0.00,VWS V14.01,2013-06-14 21:28:00,
2013-06-14 16:30:00,77.6,57.0,30.03,SSE,159,0.0,0.0,49,0.00,,CLR,0.00,VWS V14.01,2013-06-14 21:30:00,
2013-06-14 16:33:00,77.5,56.3,30.03,SSE,158,0.0,0.0,48,0.00,,CLR,0.00,VWS V14.01,2013-06-14 21:33:00,
2013-06-14 16:38:00,77.7,56.5,30.03,ESE,117,0.0,0.0,48,0.00,,CLR,0.00,VWS V14.01,2013-06-14 21:38:00,
2013-06-14 16:40:00,77.7,56.5,30.03,ESE,118,0.0,0.0,48,0.00,,CLR,0.00,VWS V14.01,2013-06-14 21:40:00,
2013-06-14 16:43:00,77.3,56.7,30.02,ESE,120,0.0,0.0,49,0.00,,CLR,0.00,VWS V14.01,2013-06-14 21:43:00,
2013-06-14 16:48:00,77.1,57.6,30.01,ESE,120,0.0,0.0,51,0.00,,CLR,0.00,VWS V14.01,2013-06-14 21:48:00,
2013-06-14 16:50:00,77.1,57.6,30.01,ESE,120,0.0,0.0,51,0.00,,CLR,0.00,VWS V14.01,2013-06-14 21:50:00,
2013-06-14 16:53:00,77.3,56.7,30.01,SSE,156,0.0,0.0,49,0.00,,CLR,0.00,VWS V14.01,2013-06-14 21:53:00,
2013-06-14 16:58:00,77.3,57.8,30.00,SSE,162,0.0,0.0,51,0.00,,CLR,0.00,VWS V14.01,2013-06-14 21:58:00,
2013-06-14 17:00:00,77.4,57.9,30.00,SSE,163,0.0,0.0,51,0.00,,CLR,0.00,VWS V14.01,2013-06-14 22:00:00,
2013-06-14 17:03:00,77.4,57.3,30.00,SSE,162,0.0,0.0,50,0.00,,CLR,0.00,VWS V14.01,2013-06-14 22:03:00,
2013-06-14 17:08:00,77.5,57.4,30.00,SSE,167,0.0,0.0,50,0.00,,CLR,0.00,VWS V14.01,2013-06-14 22:08:00,
2013-06-14 17:10:00,77.5,57.4,30.00,SSE,160,0.0,0.0,50,0.00,,CLR,0.00,VWS V14.01,2013-06-14 22:10:00,
2013-06-14 17:13:00,77.4,56.8,29.99,SSE,167,0.0,0.0,49,0.00,,CLR,0.00,VWS V14.01,2013-06-14 22:13:00,
2013-06-14 17:18:00,77.0,56.4,29.99,East,101,1.0,3.0,49,0.00,,CLR,0.00,VWS V14.01,2013-06-14 22:18:00,
2013-06-14 17:20:00,77.0,55.8,29.99,East,101,1.0,3.0,48,0.00,,CLR,0.00,VWS V14.01,2013-06-14 22:20:00,
2013-06-14 17:24:00,76.6,57.1,29.98,SSE,160,0.0,3.0,51,0.00,,CLR,0.00,VWS V14.01,2013-06-14 22:24:00,
2013-06-14 17:29:00,76.5,56.5,29.98,SE,133,1.0,1.0,50,0.00,,CLR,0.00,VWS V14.01,2013-06-14 22:29:00,
2013-06-14 17:30:00,76.5,56.5,29.98,ESE,122,1.0,3.0,50,0.00,,CLR,0.00,VWS V14.01,2013-06-14 22:30:00,
2013-06-14 17:34:00,76.6,57.1,29.98,SSE,150,0.0,1.0,51,0.00,,CLR,0.00,VWS V14.01,2013-06-14 22:34:00,
2013-06-14 17:39:00,76.9,57.4,29.98,SSE,150,0.0,0.0,51,0.00,,CLR,0.00,VWS V14.01,2013-06-14 22:39:00,
2013-06-14 17:40:00,76.8,57.3,29.98,SSE,150,0.0,1.0,51,0.00,,CLR,0.00,VWS V14.01,2013-06-14 22:40:00,
2013-06-14 17:44:00,77.0,57.0,29.98,SSE,150,0.0,0.0,50,0.00,,CLR,0.00,VWS V14.01,2013-06-14 22:44:00,
2013-06-14 17:49:00,77.1,57.0,29.98,SSE,150,0.0,0.0,50,0.00,,CLR,0.00,VWS V14.01,2013-06-14 22:49:00,
2013-06-14 17:50:00,77.1,57.0,29.98,SSE,150,0.0,0.0,50,0.00,,CLR,0.00,VWS V14.01,2013-06-14 22:50:00,
2013-06-14 17:54:00,77.3,56.7,29.98,SSE,151,0.0,0.0,49,0.00,,CLR,0.00,VWS V14.01,2013-06-14 22:54:00,
2013-06-14 17:59:00,77.5,57.4,29.98,SSE,151,0.0,0.0,50,0.00,,CLR,0.00,VWS V14.01,2013-06-14 22:59:00,
2013-06-14 18:00:00,77.5,58.0,29.98,SSE,150,0.0,0.0,51,0.00,,CLR,0.00,VWS V14.01,2013-06-14 23:00:00,
2013-06-14 18:04:00,77.6,60.2,29.98,SSE,150,0.0,0.0,55,0.00,,CLR,0.00,VWS V14.01,2013-06-14 23:04:00,
2013-06-14 18:09:00,77.5,58.0,29.98,SSE,151,0.0,0.0,51,0.00,,CLR,0.00,VWS V14.01,2013-06-14 23:09:00,
2013-06-14 18:10:00,77.5,59.0,29.98,SSE,150,0.0,0.0,53,0.00,,CLR,0.00,VWS V14.01,2013-06-14 23:10:00,
2013-06-14 18:14:00,77.5,56.3,29.98,SE,134,2.0,3.0,48,0.00,,CLR,0.00,VWS V14.01,2013-06-14 23:14:00,
2013-06-14 18:19:00,77.4,55.6,29.98,ESE,116,1.0,2.0,47,0.00,,CLR,0.00,VWS V14.01,2013-06-14 23:19:00,
2013-06-14 18:20:00,77.5,56.3,29.98,ESE,104,1.0,3.0,48,0.00,,CLR,0.00,VWS V14.01,2013-06-14 23:20:00,
2013-06-14 18:24:00,77.4,56.8,29.98,SE,124,1.0,2.0,49,0.00,,CLR,0.00,VWS V14.01,2013-06-14 23:24:00,
2013-06-14 18:29:00,77.2,57.1,29.98,SSE,153,0.0,1.0,50,0.00,,CLR,0.00,VWS V14.01,2013-06-14 23:29:00,
2013-06-14 18:30:00,77.3,56.7,29.98,SSE,153,1.0,4.0,49,0.00,,CLR,0.00,VWS V14.01,2013-06-14 23:30:00,
2013-06-14 18:35:00,76.9,57.4,29.98,SE,133,1.0,4.0,51,0.00,,CLR,0.00,VWS V14.01,2013-06-14 23:35:00,
2013-06-14 18:40:00,76.7,57.2,29.99,South,170,0.0,2.0,51,0.00,,CLR,0.00,VWS V14.01,2013-06-14 23:40:00,
2013-06-14 18:45:00,76.7,59.8,30.00,South,170,0.0,2.0,56,0.00,,CLR,0.00,VWS V14.01,2013-06-14 23:45:00,
2013-06-14 18:50:00,76.2,58.9,30.00,South,171,0.0,0.0,55,0.00,,CLR,0.00,VWS V14.01,2013-06-14 23:50:00,
2013-06-14 18:55:00,75.8,59.5,30.00,South,171,0.0,0.0,57,0.00,,CLR,0.00,VWS V14.01,2013-06-14 23:55:00,
2013-06-14 19:00:00,75.4,60.6,30.01,South,170,0.0,0.0,60,0.00,,CLR,0.00,VWS V14.01,2013-06-15 00:00:00,
2013-06-14 19:05:00,74.9,60.6,30.01,South,171,0.0,0.0,61,0.00,,CLR,0.00,VWS V14.01,2013-06-15 00:05:00,
2013-06-14 19:10:00,74.5,60.2,30.01,South,171,0.0,0.0,61,0.00,,CLR,0.00,VWS V14.01,2013-06-15 00:10:00,
2013-06-14 19:15:00,74.3,60.0,30.01,South,171,0.0,0.0,61,0.00,,CLR,0.00,VWS V14.01,2013-06-15 00:15:00,
2013-06-14 19:20:00,74.0,60.2,30.01,South,170,0.0,0.0,62,0.00,,SCT120,0.00,VWS V14.01,2013-06-15 00:20:00,
2013-06-14 19:25:00,73.9,61.0,30.01,South,171,0.0,0.0,64,0.00,,SCT120,0.00,VWS V14.01,2013-06-15 00:25:00,
2013-06-14 19:30:00,73.5,60.2,30.01,South,171,0.0,0.0,63,0.00,,SCT120,0.00,VWS V14.01,2013-06-15 00:30:00,
2013-06-14 19:35:00,73.3,60.4,30.01,South,170,0.0,0.0,64,0.00,,SCT120,0.00,VWS V14.01,2013-06-15 00:35:00,
2013-06-14 19:40:00,73.0,58.8,30.01,South,170,0.0,0.0,61,0.00,,CLR,0.00,VWS V14.01,2013-06-15 00:40:00,
2013-06-14 19:45:00,72.8,59.9,30.01,South,170,0.0,0.0,64,0.00,,CLR,0.00,VWS V14.01,2013-06-15 00:45:00,
2013-06-14 19:50:00,72.7,58.9,30.01,South,170,0.0,0.0,62,0.00,,CLR,0.00,VWS V14.01,2013-06-15 00:50:00,
2013-06-14 19:51:00,72.6,57.9,30.00,South,170,0.0,0.0,60,0.00,,CLR,0.00,VWS V14.01,2013-06-15 00:51:00,
2013-06-14 19:56:00,72.6,59.3,30.00,South,170,0.0,0.0,63,0.00,,CLR,0.00,VWS V14.01,2013-06-15 00:56:00,
2013-06-14 20:00:00,72.6,59.3,30.00,South,170,0.0,0.0,63,0.00,,CLR,0.00,VWS V14.01,2013-06-15 01:00:00,
2013-06-14 20:01:00,72.4,58.7,30.00,South,169,0.0,0.0,62,0.00,,CLR,0.00,VWS V14.01,2013-06-15 01:01:00,
2013-06-14 20:06:00,72.2,58.5,30.00,South,170,0.0,0.0,62,0.00,,CLR,0.00,VWS V14.01,2013-06-15 01:06:00,
2013-06-14 20:10:00,72.0,58.3,30.00,South,170,0.0,0.0,62,0.00,,CLR,0.00,VWS V14.01,2013-06-15 01:10:00,
2013-06-14 20:11:00,71.9,59.1,30.00,South,170,0.0,0.0,64,0.00,,CLR,0.00,VWS V14.01,2013-06-15 01:11:00,
2013-06-14 20:16:00,71.6,58.8,30.00,South,171,0.0,0.0,64,0.00,,CLR,0.00,VWS V14.01,2013-06-15 01:16:00,
2013-06-14 20:20:00,71.4,58.6,30.00,South,170,0.0,0.0,64,0.00,,CLR,0.00,VWS V14.01,2013-06-15 01:20:00,
2013-06-14 20:21:00,71.2,58.0,30.00,South,170,0.0,0.0,63,0.00,,CLR,0.00,VWS V14.01,2013-06-15 01:21:00,
2013-06-14 20:26:00,71.1,58.3,30.01,South,170,0.0,0.0,64,0.00,,CLR,0.00,VWS V14.01,2013-06-15 01:26:00,
2013-06-14 20:30:00,71.1,58.8,30.01,South,170,0.0,0.0,65,0.00,,CLR,0.00,VWS V14.01,2013-06-15 01:30:00,
2013-06-14 20:31:00,71.1,59.6,30.01,South,170,0.0,0.0,67,0.00,,CLR,0.00,VWS V14.01,2013-06-15 01:31:00,
2013-06-14 20:36:00,70.8,57.6,30.01,South,170,0.0,0.0,63,0.00,,CLR,0.00,VWS V14.01,2013-06-15 01:36:00,
2013-06-14 20:40:00,70.8,57.6,30.01,South,170,0.0,0.0,63,0.00,,CLR,0.00,VWS V14.01,2013-06-15 01:40:00,
2013-06-14 20:41:00,70.8,57.6,30.01,South,170,0.0,0.0,63,0.00,,CLR,0.00,VWS V14.01,2013-06-15 01:41:00,
2013-06-14 20:46:00,70.7,57.1,30.01,South,170,0.0,0.0,62,0.00,,CLR,0.00,VWS V14.01,2013-06-15 01:46:00,
2013-06-14 20:50:00,70.8,57.2,30.01,South,170,0.0,0.0,62,0.00,,CLR,0.00,VWS V14.01,2013-06-15 01:50:00,
2013-06-14 20:51:00,70.8,56.7,30.01,South,170,0.0,0.0,61,0.00,,CLR,0.00,VWS V14.01,2013-06-15 01:51:00,
2013-06-14 20:56:00,70.8,57.2,30.02,South,170,0.0,0.0,62,0.00,,CLR,0.00,VWS V14.01,2013-06-15 01:56:00,
2013-06-14 21:00:00,70.8,56.7,30.01,South,170,0.0,0.0,61,0.00,,CLR,0.00,VWS V14.01,2013-06-15 02:00:00,
2013-06-14 21:01:00,70.7,56.6,30.02,South,169,0.0,0.0,61,0.00,,CLR,0.00,VWS V14.01,2013-06-15 02:01:00,
2013-06-14 21:07:00,70.5,56.4,30.02,South,170,0.0,0.0,61,0.00,,CLR,0.00,VWS V14.01,2013-06-15 02:07:00,
2013-06-14 21:10:00,70.5,56.0,30.02,South,170,0.0,0.0,60,0.00,,CLR,0.00,VWS V14.01,2013-06-15 02:10:00,
2013-06-14 21:12:00,70.4,55.9,30.02,South,170,0.0,0.0,60,0.00,,CLR,0.00,VWS V14.01,2013-06-15 02:12:00,
2013-06-14 21:17:00,70.4,57.2,30.02,South,170,0.0,0.0,63,0.00,,CLR,0.00,VWS V14.01,2013-06-15 02:17:00,
2013-06-14 21:20:00,70.3,57.6,30.02,South,170,0.0,0.0,64,0.00,,CLR,0.00,VWS V14.01,2013-06-15 02:20:00,
2013-06-14 21:22:00,70.3,57.6,30.02,South,170,0.0,0.0,64,0.00,,CLR,0.00,VWS V14.01,2013-06-15 02:22:00,
2013-06-14 21:27:00,70.1,56.5,30.02,South,170,0.0,0.0,62,0.00,,CLR,0.00,VWS V14.01,2013-06-15 02:27:00,
2013-06-14 21:30:00,70.0,56.0,30.03,South,170,0.0,0.0,61,0.00,,CLR,0.00,VWS V14.01,2013-06-15 02:30:00,
2013-06-14 21:32:00,70.0,55.5,30.03,South,170,0.0,0.0,60,0.00,,CLR,0.00,VWS V14.01,2013-06-15 02:32:00,
2013-06-14 21:37:00,69.9,55.4,30.03,South,170,0.0,0.0,60,0.00,,CLR,0.00,VWS V14.01,2013-06-15 02:37:00,
2013-06-14 21:40:00,69.9,55.4,30.03,South,171,0.0,0.0,60,0.00,,CLR,0.00,VWS V14.01,2013-06-15 02:40:00,
2013-06-14 21:42:00,69.9,55.4,30.03,South,170,0.0,0.0,60,0.00,,CLR,0.00,VWS V14.01,2013-06-15 02:42:00,
2013-06-14 21:47:00,69.9,55.8,30.03,South,170,0.0,0.0,61,0.00,,CLR,0.00,VWS V14.01,2013-06-15 02:47:00,
2013-06-14 21:50:00,69.9,56.8,30.03,South,170,0.0,0.0,63,0.00,,CLR,0.00,VWS V14.01,2013-06-15 02:50:00,
2013-06-14 21:52:00,69.9,58.9,30.03,South,170,0.0,0.0,68,0.00,,CLR,0.00,VWS V14.01,2013-06-15 02:52:00,
2013-06-14 21:57:00,69.7,58.3,30.02,South,170,0.0,0.0,67,0.00,,CLR,0.00,VWS V14.01,2013-06-15 02:57:00,
2013-06-14 22:00:00,69.6,58.6,30.02,South,169,0.0,0.0,68,0.00,,CLR,0.00,VWS V14.01,2013-06-15 03:00:00,
2013-06-14 22:02:00,69.1,60.1,30.01,South,169,0.0,0.0,73,0.00,,CLR,0.00,VWS V14.01,2013-06-15 03:02:00,
2013-06-14 22:07:00,68.4,59.8,30.01,SSE,166,0.0,0.0,74,0.00,,CLR,0.00,VWS V14.01,2013-06-15 03:07:00,
2013-06-14 22:10:00,68.3,59.3,30.01,SSE,152,0.0,0.0,73,0.00,,CLR,0.00,VWS V14.01,2013-06-15 03:10:00,
2013-06-14 22:12:00,67.9,59.3,30.00,ESE,107,0.0,0.0,74,0.00,,CLR,0.00,VWS V14.01,2013-06-15 03:12:00,
2013-06-14 22:17:00,67.7,58.0,30.00,East,86,0.0,2.0,71,0.00,,CLR,0.00,VWS V14.01,2013-06-15 03:17:00,
2013-06-14 22:20:00,67.7,58.0,30.00,East,86,0.0,2.0,71,0.00,,CLR,0.00,VWS V14.01,2013-06-15 03:20:00,
2013-06-14 22:23:00,68.2,57.7,30.00,East,96,0.0,1.0,69,0.00,,CLR,0.00,VWS V14.01,2013-06-15 03:23:00,
2013-06-14 22:28:00,68.6,56.8,30.00,East,92,0.0,1.0,66,0.00,,CLR,0.00,VWS V14.01,2013-06-15 03:28:00,
2013-06-14 22:30:00,68.6,56.4,30.00,East,91,0.0,1.0,65,0.00,,CLR,0.00,VWS V14.01,2013-06-15 03:30:00,
2013-06-14 22:33:00,69.0,56.8,29.99,East,92,0.0,0.0,65,0.00,,CLR,0.00,VWS V14.01,2013-06-15 03:33:00,
2013-06-14 22:38:00,69.0,56.3,29.99,East,91,0.0,0.0,64,0.00,,CLR,0.00,VWS V14.01,2013-06-15 03:38:00,
2013-06-14 22:40:00,69.1,56.4,29.99,East,91,0.0,0.0,64,0.00,,CLR,0.00,VWS V14.01,2013-06-15 03:40:00,
2013-06-14 22:43:00,69.2,55.6,29.99,East,98,0.0,1.0,62,0.00,,CLR,0.00,VWS V14.01,2013-06-15 03:43:00,
2013-06-14 22:48:00,69.6,56.5,29.99,East,95,0.0,1.0,63,0.00,,CLR,0.00,VWS V14.01,2013-06-15 03:48:00,
2013-06-14 22:50:00,69.6,56.5,29.99,East,94,0.0,1.0,63,0.00,,CLR,0.00,VWS V14.01,2013-06-15 03:50:00,
2013-06-14 22:53:00,69.5,55.9,29.99,East,95,0.0,1.0,62,0.00,,CLR,0.00,VWS V14.01,2013-06-15 03:53:00,
2013-06-14 22:58:00,69.5,56.4,29.99,East,94,0.0,1.0,63,0.00,,CLR,0.00,VWS V14.01,2013-06-15 03:58:00,
2013-06-14 23:00:00,69.5,56.4,29.99,East,95,0.0,1.0,63,0.00,,CLR,0.00,VWS V14.01,2013-06-15 04:00:00,
2013-06-14 23:01:00,69.5,56.4,29.99,East,94,0.0,0.0,63,0.00,,CLR,0.00,VWS V14.01,2013-06-15 04:01:00,
2013-06-14 23:02:00,69.5,55.9,29.99,East,95,0.0,0.0,62,0.00,,CLR,0.00,VWS V14.01,2013-06-15 04:02:00,
2013-06-14 23:05:00,69.4,56.3,29.99,ESE,107,0.0,1.0,63,0.00,,CLR,0.00,VWS V14.01,2013-06-15 04:05:00,
2013-06-14 23:10:00,69.5,56.4,29.98,ENE,64,0.0,0.0,63,0.00,,CLR,0.00,VWS V14.01,2013-06-15 04:10:00,
2013-06-14 23:15:00,69.5,56.4,29.99,SE,135,0.0,1.0,63,0.00,,CLR,0.00,VWS V14.01,2013-06-15 04:15:00,
2013-06-14 23:20:00,69.6,56.0,29.99,SE,129,0.0,1.0,62,0.00,,CLR,0.00,VWS V14.01,2013-06-15 04:20:00,
2013-06-14 23:25:00,69.7,55.7,29.99,ESE,110,0.0,1.0,61,0.00,,CLR,0.00,VWS V14.01,2013-06-15 04:25:00,
2013-06-14 23:30:00,69.6,56.0,29.99,ESE,112,0.0,1.0,62,0.00,,CLR,0.00,VWS V14.01,2013-06-15 04:30:00,
2013-06-14 23:31:00,69.6,56.5,29.99,SE,141,0.0,0.0,63,0.00,,CLR,0.00,VWS V14.01,2013-06-15 04:31:00,
2013-06-14 23:36:00,69.3,56.2,29.98,SSE,166,1.0,1.0,63,0.00,,CLR,0.00,VWS V14.01,2013-06-15 04:36:00,
2013-06-14 23:40:00,69.3,56.2,29.98,SSW,198,0.0,2.0,63,0.00,,CLR,0.00,VWS V14.01,2013-06-15 04:40:00,
2013-06-14 23:41:00,69.2,55.6,29.98,SSW,194,1.0,1.0,62,0.00,,CLR,0.00,VWS V14.01,2013-06-15 04:41:00,
2013-06-14 23:46:00,69.2,56.1,29.99,SSE,148,0.0,2.0,63,0.00,,CLR,0.00,VWS V14.01,2013-06-15 04:46:00,
2013-06-14 23:50:00,69.2,55.6,29.99,SSW,197,0.0,2.0,62,0.00,,CLR,0.00,VWS V14.01,2013-06-15 04:50:00,
2013-06-14 23:51:00,69.2,55.6,29.98,SSE,157,0.0,2.0,62,0.00,,CLR,0.00,VWS V14.01,2013-06-15 04:51:00,
2013-06-14 23:56:00,69.2,55.2,29.99,SE,136,0.0,2.0,61,0.00,,CLR,0.00,VWS V14.01,2013-06-15 04:56:00,